Other Public Products
Issued by NWS Charleston, SC

Current Version | Previous Version | Text Only | Print | Product List | Glossary Off
Versions: 1 2 3 4 5 6 7 8 9 10 11 12 13 14 15 16 17 18 19 20 21 22 23 24 25 26 27 28 29 30 31 32 33 34 35 36 37 38 39 40 41 42 43 44 45 46 47 48 49 50
000 FPUS82 KCHS 220612 OPUCHS TEST...KCHS/KSAV Gateway Observations...TEST National Weather Service Charleston SC 100 AM EST WED NOV 22 2017 NOTE: "fair" indicates few or no clouds below 12,000 feet with no significant weather and/or obstructions to visibility. SCZ050-WAZ558-NCZ071-TXZ119-213-PAZ071-DCZ001-FLZ074-172-MI076- NYZ176-178-MAZ016-IL014-TNZ027-NJZ106-GAZ044-MD014-220700- ...Gateway Observations for Charleston International... CITY SKY/WX TMP DP RH WIND PRES REMARKS Chas Airport CLOUDY 62 61 96 W5 29.95F 6HR MIN TEMP: 60; 6HR MAX TEMP: 63; 6HR PCP: 0.16; Seattle LGT RAIN 56 55 97 SE8 29.94R 6HR MIN TEMP: 47; 6HR MAX TEMP: 60; 6HR PCP: 0.42; Charlotte LGT RAIN 53 53 100 N6 30.01F 6HR MIN TEMP: 53; 6HR MAX TEMP: 60; 6HR PCP: 0.21; Dallas DFW CLEAR 55 35 47 N22G29 30.23R 6HR MIN TEMP: 55; 6HR MAX TEMP: 64; Dallas Love CLEAR 56 34 43 N16G23 30.25R 6HR MIN TEMP: 56; 6HR MAX TEMP: 64; Philladelphia CLOUDY 54 44 69 S7 29.99F 6HR MIN TEMP: 51; 6HR MAX TEMP: 56; Wash National CLOUDY 52 46 80 SW8 29.99F 6HR MIN TEMP: 52; 6HR MAX TEMP: 57; Baltimore CLOUDY 53 45 74 S6 29.97F 6HR MIN TEMP: 49; 6HR MAX TEMP: 56; Miami PTCLDY 73 70 90 CALM 29.92F 6HR MIN TEMP: 72; 6HR MAX TEMP: 78; Detroit CLOUDY 34 23 64 NW12G20 30.06R WCI 25 6HR MIN TEMP: 34; 6HR MAX TEMP: 40; 6HR PCP: 0.02; Newark CLOUDY 49 40 71 CALM 30.00F 6HR MIN TEMP: 48; 6HR MAX TEMP: 53; Laguardia NOT AVBL J F K CLOUDY 48 44 86 S6 30.02F 6HR MIN TEMP: 48; 6HR MAX TEMP: 52; Boston Logan CLOUDY 46 39 76 S7 30.02F 6HR MIN TEMP: 46; 6HR MAX TEMP: 52; Ft. Lauderdale MOCLDY 73 72 96 CALM 29.92F 6HR MIN TEMP: 73; 6HR MAX TEMP: 77; Chicago O`Hare CLEAR 27 15 61 NW9 30.21R WCI 18 6HR MIN TEMP: 27; 6HR MAX TEMP: 33; Chicago Midway CLEAR 28 15 58 NW13 30.22R WCI 17 6HR MIN TEMP: 28; 6HR MAX TEMP: 34; Houston Bush MOCLDY 61 57 87 NE10 30.07S 6HR MIN TEMP: 61; 6HR MAX TEMP: 70; Houston Hobby CLOUDY 62 58 86 N16 30.06R 6HR MIN TEMP: 62; 6HR MAX TEMP: 70; Nashville CLEAR 45 34 65 NW8 30.12R 6HR MIN TEMP: 39; 6HR MAX TEMP: 52; Atlanta CLOUDY 56 54 93 CALM 30.03R 6HR MIN TEMP: 55; 6HR MAX TEMP: 61; $$ GAZ044-118-TXZ119-213-NCZ071-DCZ001-MDZ014-506-PAZ021-071-NJZ106- NYZ176-178-MAZ106-OHZ011-021-055-MIZ076-KYZ091-ILZ014-INZ047- MNZ060-ONZ431-220700- ...Gateway Observations for Savannah International... CITY SKY/WX TMP DP RH WIND PRES REMARKS Savannah Arpt FOG 62 62 100 NW5 29.98F VSB 3/4 6HR MIN TEMP: 61; 6HR MAX TEMP: 63; 6HR PCP: 0.02; Atlanta CLOUDY 56 54 93 CALM 30.03R 6HR MIN TEMP: 55; 6HR MAX TEMP: 61; Charlotte LGT RAIN 53 53 100 N6 30.01F 6HR MIN TEMP: 53; 6HR MAX TEMP: 60; 6HR PCP: 0.21; Dallas DFW CLEAR 55 35 47 N22G29 30.23R 6HR MIN TEMP: 55; 6HR MAX TEMP: 64; Houston Bush MOCLDY 61 57 87 NE10 30.07S 6HR MIN TEMP: 61; 6HR MAX TEMP: 70; Wash National CLOUDY 52 46 80 SW8 29.99F 6HR MIN TEMP: 52; 6HR MAX TEMP: 57; Wash Dulles CLOUDY 53 45 74 S12 29.97F 6HR MIN TEMP: 52; 6HR MAX TEMP: 56; Baltimore CLOUDY 53 45 74 S6 29.97F 6HR MIN TEMP: 49; 6HR MAX TEMP: 56; Philadelphia CLOUDY 54 44 69 S7 29.99F 6HR MIN TEMP: 51; 6HR MAX TEMP: 56; Newark CLOUDY 49 40 71 CALM 30.00F 6HR MIN TEMP: 48; 6HR MAX TEMP: 53; Laguardia NOT AVBL J F K CLOUDY 48 44 86 S6 30.02F 6HR MIN TEMP: 48; 6HR MAX TEMP: 52; Boston CLOUDY 46 39 76 S7 30.02F 6HR MIN TEMP: 46; 6HR MAX TEMP: 52; Pittsburg CLOUDY 45 32 60 NW7 29.92S 6HR MIN TEMP: 42; 6HR MAX TEMP: 50; Akron LGT RAIN 37 33 85 NW13 29.98R WCI 29 6HR MIN TEMP: 37; 6HR MAX TEMP: 49; 6HR PCP: 0.03; Cleveland CLOUDY 37 35 92 SW7 30.03S WCI 32 6HR MIN TEMP: 37; 6HR MAX TEMP: 51; 6HR PCP: 0.15; Cincinnati CLOUDY 36 33 89 NW12 30.12R WCI 28 6HR MIN TEMP: 36; 6HR MAX TEMP: 51; 6HR PCP: 0.03; Columbus RAIN 36 35 96 NW12 30.06R WCI 28 Detroit CLOUDY 34 23 64 NW12G20 30.06R WCI 25 6HR MIN TEMP: 34; 6HR MAX TEMP: 40; 6HR PCP: 0.02; Chicago O`Hare CLEAR 27 15 61 NW9 30.21R WCI 18 6HR MIN TEMP: 27; 6HR MAX TEMP: 33; Minneapolis CLOUDY 19 11 70 NW10 30.34R WCI 7 6HR MIN TEMP: 19; 6HR MAX TEMP: 25; Indianapolis CLEAR 29 23 78 NW8 30.18R WCI 21 6HR MIN TEMP: 28; 6HR MAX TEMP: 39; 6HR PCP: TRACE; Toronto Canada CLOUDY 37 28 70 NW16 29.92R WCI 28 $$

USA.gov is the U.S. government's official web portal to all federal, state and local government web resources and services.